Alliance, NE

5:09 PM MDT on May 26, 2017 (GMT -0600)
Alliance Municipal

Weather History for KAIA - February, 2012

Change the Weather History Date:

Friday, February 3, 2012

  Actual Average Record
Temperature  
Mean Temperature 27 °F 25 °F  
Max Temperature 31 °F 39 °F 69 °F (1962)
Min Temperature 22 °F 11 °F -27 °F (1996)
Degree Days  
Heating Degree Days 38 40  
Month to date heating degree days 104 120  
Since 1 July heating degree days 4173 4465  
Cooling Degree Days 0 0  
Month to date cooling degree days 0 0  
Year to date cooling degree days 0 0  
Moisture  
Dew Point 25 °F    
Average Humidity 82    
Maximum Humidity 92    
Minimum Humidity 72    
Precipitation  
Precipitation T in 0.02 in 0.23 in (1960)
Month to date precipitation T 0.04  
Year to date precipitation 0.19 0.22  
Sea Level Pressure  
Sea Level Pressure 30.31 in    
Wind  
Wind Speed 17 mph (North)    
Max Wind Speed 24 mph    
Max Gust Speed 31 mph    
Visibility 5 miles    
Events Snow    
T = Trace of Precipitation, MM = Missing Value Source: NWS Daily Summary

Daily Weather History Graph

Daily Weather History Graph

Search for Another Location

Airport or City:

Trip Planner

Search our weather history database for the weather conditions in past years. The results will help you decide how hot, cold, wet, or windy it might be!

Date:

Astronomy

Feb. 03, 2012 Rise Set
Actual Time 7:02 AM MST 5:08 PM MST
Civil Twilight 6:32 AM MST 5:37 PM MST
Nautical Twilight 5:59 AM MST 6:10 PM MST
Astronomical Twilight 5:26 AM MST 6:43 PM MST
Moon 1:09 PM MST (2/3) 3:42 AM MST (2/3)
Length of Visible Light 11h 04m
Length of Day
10h 05m
Waxing Gibbous, 82% of the Moon is Illuminated
Feb 3
Waxing Gibbous
Feb 7
Full
Feb 14
Last Quarter
Feb 21
New
Feb 29
First Quarter

Hourly Weather History & Observations

Time (MST) Temp. Windchill Dew Point Humidity Pressure Visibility Wind Dir Wind Speed Gust Speed Precip Events Conditions
12:53 AM 30.0 °F 18.3 °F 23.0 °F 75% 30.20 in 10.0 mi North 17.3 mph - N/A   Clear
1:53 AM 30.0 °F 17.9 °F 24.1 °F 79% 30.21 in 10.0 mi North 18.4 mph 25.3 mph N/A   Scattered Clouds
2:53 AM 30.0 °F 18.3 °F 24.1 °F 79% 30.22 in 10.0 mi North 17.3 mph 23.0 mph N/A   Overcast
3:53 AM 30.0 °F 18.7 °F 24.1 °F 79% 30.25 in 10.0 mi North 16.1 mph 24.2 mph N/A   Overcast
4:22 AM 30.2 °F 18.1 °F 24.8 °F 80% 30.21 in 10.0 mi North 18.4 mph 25.3 mph N/A   Overcast
4:53 AM 28.9 °F 15.8 °F 25.0 °F 85% 30.28 in 10.0 mi North 20.7 mph 27.6 mph N/A   Overcast
5:53 AM 28.9 °F 16.1 °F 25.0 °F 85% 30.30 in 10.0 mi North 19.6 mph - N/A   Overcast
6:01 AM 28.4 °F 16.2 °F 24.8 °F 86% 30.23 in 10.0 mi North 17.3 mph 29.9 mph N/A   Overcast
6:53 AM 28.9 °F 15.8 °F 25.0 °F 85% 30.32 in 10.0 mi North 20.7 mph 26.5 mph N/A   Overcast
7:53 AM 28.9 °F 16.1 °F 24.1 °F 82% 30.34 in 10.0 mi North 19.6 mph - N/A   Overcast
8:53 AM 28.9 °F 15.4 °F 25.0 °F 85% 30.34 in 10.0 mi North 21.9 mph 27.6 mph N/A   Overcast
9:53 AM 28.9 °F 16.1 °F 25.0 °F 85% 30.35 in 10.0 mi North 19.6 mph 27.6 mph N/A   Overcast
10:42 AM 30.2 °F 17.8 °F 24.8 °F 80% 30.28 in 10.0 mi North 19.6 mph 25.3 mph N/A   Overcast
10:53 AM 30.9 °F 18.7 °F 25.0 °F 79% 30.35 in 10.0 mi NNE 19.6 mph - N/A   Overcast
11:53 AM 30.9 °F 19.1 °F 25.0 °F 79% 30.35 in 6.0 mi North 18.4 mph - N/A   Haze
12:09 PM 30.2 °F 17.8 °F 24.8 °F 80% 30.27 in 2.5 mi North 19.6 mph 25.3 mph 0.00 in Snow Light Snow
12:20 PM 30.2 °F 18.5 °F 26.6 °F 86% 30.27 in 1.5 mi North 17.3 mph - 0.00 in Snow Light Snow
12:42 PM 30.2 °F 17.4 °F 26.6 °F 86% 30.27 in 1.2 mi North 20.7 mph 25.3 mph 0.00 in Snow Light Snow
12:53 PM 30.2 °F 18.1 °F 26.6 °F 86% 30.27 in 1.2 mi North 18.4 mph 25.3 mph N/A Snow Light Snow
1:07 PM 30.2 °F 18.1 °F 26.6 °F 86% 30.27 in 1.0 mi North 18.4 mph 24.2 mph 0.00 in Snow Light Snow
1:15 PM 30.2 °F 18.5 °F 26.6 °F 86% 30.27 in 1.0 mi North 17.3 mph 24.2 mph 0.00 in Snow Light Snow
1:53 PM 30.0 °F 19.1 °F 27.0 °F 88% 30.35 in 1.0 mi North 15.0 mph 23.0 mph 0.00 in Snow Light Snow
2:35 PM 30.2 °F 18.5 °F 26.6 °F 86% 30.27 in 0.8 mi North 17.3 mph 25.3 mph 0.00 in Snow Light Snow
2:50 PM 30.2 °F 17.4 °F 26.6 °F 86% 30.27 in 1.0 mi North 20.7 mph 26.5 mph 0.00 in Snow Light Snow
2:53 PM 30.0 °F 17.5 °F 27.0 °F 88% 30.36 in 1.0 mi North 19.6 mph 26.5 mph 0.00 in Snow Light Snow
3:05 PM 30.2 °F 18.5 °F 26.6 °F 86% 30.27 in 0.8 mi North 17.3 mph 26.5 mph 0.00 in Snow Light Snow
3:22 PM 30.2 °F 18.9 °F 26.6 °F 86% 30.28 in 1.0 mi North 16.1 mph 23.0 mph 0.00 in Snow Light Snow
3:44 PM 30.2 °F 18.1 °F 26.6 °F 86% 30.28 in 0.8 mi North 18.4 mph 25.3 mph 0.00 in Snow Light Snow
3:51 PM 30.2 °F 17.8 °F 28.4 °F 93% 30.28 in 1.0 mi North 19.6 mph 25.3 mph 0.00 in Snow Light Snow
3:53 PM 30.0 °F 18.7 °F 28.0 °F 92% 30.37 in 1.0 mi North 16.1 mph 25.3 mph 0.00 in Snow Light Snow
4:27 PM 30.2 °F 17.4 °F 26.6 °F 86% 30.29 in 1.2 mi North 20.7 mph 26.5 mph 0.00 in Snow Light Snow
4:34 PM 30.2 °F 17.4 °F 26.6 °F 86% 30.29 in 2.0 mi North 20.7 mph 26.5 mph 0.00 in Snow Light Snow
4:45 PM 30.2 °F 18.1 °F 26.6 °F 86% 30.29 in 1.8 mi North 18.4 mph - 0.00 in Snow Light Snow
4:49 PM 30.2 °F 17.4 °F 26.6 °F 86% 30.29 in 1.2 mi North 20.7 mph 27.6 mph 0.00 in Snow Light Snow
4:53 PM 30.0 °F 17.2 °F 27.0 °F 88% 30.38 in 1.2 mi NNE 20.7 mph 27.6 mph 0.00 in Snow Light Snow
5:00 PM 30.2 °F 17.4 °F 26.6 °F 86% 30.30 in 2.0 mi North 20.7 mph - 0.00 in Snow Light Snow
5:09 PM 30.2 °F 17.4 °F 26.6 °F 86% 30.30 in 5.0 mi NNE 20.7 mph - 0.00 in   Overcast
5:53 PM 30.0 °F 17.9 °F 26.1 °F 85% 30.40 in 6.0 mi NNE 18.4 mph - 0.00 in   Overcast
6:07 PM 30.2 °F 18.1 °F 26.6 °F 86% 30.32 in 5.0 mi NNE 18.4 mph - N/A   Overcast
6:53 PM 28.9 °F 15.4 °F 26.1 °F 89% 30.42 in 2.5 mi North 21.9 mph 25.3 mph 0.00 in Snow Light Snow
7:39 PM 28.4 °F 16.6 °F 26.6 °F 93% 30.33 in 2.0 mi North 16.1 mph 23.0 mph 0.00 in Snow Light Snow
7:53 PM 28.0 °F 16.1 °F 25.0 °F 88% 30.43 in 2.0 mi North 16.1 mph - 0.00 in Snow Light Snow
8:09 PM 28.4 °F 17.0 °F 24.8 °F 86% 30.33 in 3.0 mi North 15.0 mph 25.3 mph 0.00 in Snow Light Snow
8:53 PM 25.0 °F 14.8 °F 23.0 °F 92% 30.43 in 9.0 mi NNW 10.4 mph - 0.00 in   Partly Cloudy
9:53 PM 25.0 °F 13.6 °F 21.9 °F 88% 30.44 in 10.0 mi North 12.7 mph - N/A   Overcast
10:53 PM 24.1 °F 13.7 °F 21.0 °F 88% 30.44 in 9.0 mi North 10.4 mph - N/A   Mostly Cloudy
11:53 PM 21.9 °F 11.7 °F 19.9 °F 92% 30.46 in 8.0 mi North 9.2 mph - N/A   Partly Cloudy